Date String (YYYY-MM-DD hh:mm:ss) UTC,Instrument flags,Ambient pressure (hPa),Sample flow (lpm),Bypass flow (lpm),Sample temperature (°C),Ambient temperature (°C),ASC tube jacket temperature (°C),LED temperature (°C),Box temperature (°C),Sample RH (%),Span deviation,Mass concentration (μg/m³),Mass concentration (μg/m³),Mass concentration (μg/m³)
DateTimeUTC,F1_M11,P_M11,Q1_M11,Q2_M11,T1_M11,T2_M11,T3_M11,T4_M11,T5_M11,U1_M11,ZSPAN_M11,X0_M11,X2_M11,X1_M11
2022-07-30 06:00:00,,0830.2,5.01,0.00,29.7,28.6,00.0,38.5,31.6,26.0,0000.0,0007.77,0004.68,0004.34
2022-07-30 06:01:00,,0830.1,4.99,0.00,29.7,28.6,00.0,38.5,31.7,25.8,0000.0,0007.86,0004.70,0004.34
2022-07-30 06:02:00,,0830.1,5.00,0.00,29.8,28.7,00.0,38.5,31.7,25.9,0000.0,0007.87,0004.69,0004.36
2022-07-30 06:03:00,,0830.1,5.01,0.00,29.8,28.7,00.0,38.5,31.7,25.7,0000.0,0008.17,0004.71,0004.37
2022-07-30 06:04:00,,0830.2,4.99,0.00,29.8,28.7,00.0,38.5,31.7,25.8,0000.0,0007.99,0004.71,0004.37
2022-07-30 06:05:00,,0830.1,5.01,0.00,29.8,28.8,00.0,38.6,31.7,25.7,0000.0,0008.05,0004.75,0004.37
2022-07-30 06:06:00,,0830.1,5.01,0.00,29.8,28.8,00.0,38.6,31.8,25.6,0000.0,0008.04,0004.76,0004.37
2022-07-30 06:07:00,,0830.1,4.99,0.00,29.9,28.8,00.0,38.6,31.8,25.7,0000.0,0007.93,0004.72,0004.36
2022-07-30 06:08:00,,0830.1,5.01,0.00,29.9,28.9,00.0,38.6,31.8,25.5,0000.0,0007.80,0004.68,0004.35
2022-07-30 06:09:00,,0830.1,4.99,0.00,29.9,28.9,00.0,38.6,31.8,25.7,0000.0,0007.88,0004.68,0004.35
2022-07-30 06:10:00,,0830.2,5.00,0.00,29.9,28.9,00.0,38.6,31.9,25.8,0000.0,0007.91,0004.68,0004.35
2022-07-30 06:11:00,,0830.2,5.00,0.00,29.9,28.9,00.0,38.7,31.9,26.0,0000.0,0007.84,0004.70,0004.37
2022-07-30 06:12:00,,0830.2,5.01,0.00,30.0,28.8,00.0,38.7,31.9,25.9,0000.0,0007.81,0004.69,0004.36
2022-07-30 06:13:00,,0830.3,5.00,0.00,29.9,28.1,00.0,38.6,31.7,26.6,0000.0,0007.85,0004.68,0004.33
2022-07-30 06:14:00,,0830.3,4.99,0.00,29.9,27.6,00.0,38.6,31.5,27.2,0000.0,0007.54,0004.67,0004.32
2022-07-30 06:15:00,,0830.3,5.00,0.00,29.8,27.4,00.0,38.6,31.4,26.9,0000.0,0007.50,0004.69,0004.32
2022-07-30 06:16:00,,0830.2,4.98,0.00,29.7,27.5,00.0,38.6,31.4,26.8,0000.0,0007.47,0004.66,0004.31
2022-07-30 06:17:00,,0830.2,5.00,0.00,29.7,27.6,00.0,38.5,31.4,26.8,0000.0,0007.47,0004.65,0004.31
2022-07-30 06:18:00,,0830.3,5.01,0.00,29.6,27.7,00.0,38.5,31.4,26.6,0000.0,0007.42,0004.63,0004.30
2022-07-30 06:19:00,,0830.2,5.00,0.00,29.6,27.8,00.0,38.5,31.4,26.5,0000.0,0008.03,0004.65,0004.30
2022-07-30 06:20:00,,0830.1,4.99,0.00,29.6,28.0,00.0,38.5,31.5,26.5,0000.0,0008.49,0004.67,0004.29
2022-07-30 06:21:00,,0830.1,5.01,0.00,29.6,28.1,00.0,38.5,31.5,26.4,0000.0,0008.51,0004.70,0004.27
2022-07-30 06:22:00,,0830.1,5.00,0.00,29.6,28.2,00.0,38.5,31.5,26.3,0000.0,0008.44,0004.67,0004.25
2022-07-30 06:23:00,,0830.1,4.99,0.00,29.7,28.3,00.0,38.5,31.5,26.0,0000.0,0008.43,0004.67,0004.24
2022-07-30 06:24:00,,0830.1,5.01,0.00,29.7,28.4,00.0,38.5,31.6,25.9,0000.0,0008.45,0004.69,0004.26
2022-07-30 06:25:00,,0830.1,4.99,0.00,29.7,28.5,00.0,38.5,31.6,25.9,0000.0,0008.51,0004.71,0004.27
2022-07-30 06:26:00,,0830.1,4.99,0.00,29.7,28.5,00.0,38.5,31.6,26.1,0000.0,0008.81,0004.69,0004.26
2022-07-30 06:27:00,,0830.1,5.01,0.00,29.7,28.6,00.0,38.5,31.7,26.6,0000.0,0009.04,0004.67,0004.25
2022-07-30 06:28:00,,0830.1,4.99,0.00,29.7,28.6,00.0,38.5,31.7,26.4,0000.0,0008.96,0004.65,0004.25
2022-07-30 06:29:00,,0830.1,5.01,0.00,29.8,28.7,00.0,38.5,31.7,26.5,0000.0,0009.07,0004.69,0004.26
2022-07-30 06:30:00,,0830.1,5.00,0.00,29.8,28.7,00.0,38.6,31.8,26.6,0000.0,0008.60,0004.68,0004.26
2022-07-30 06:31:00,,0830.1,4.99,0.00,29.8,28.8,00.0,38.6,31.7,26.3,0000.0,0007.92,0004.63,0004.26
2022-07-30 06:32:00,,0830.1,5.00,0.00,29.8,28.8,00.0,38.6,31.8,26.1,0000.0,0007.84,0004.61,0004.26
2022-07-30 06:33:00,,0830.1,4.99,0.00,29.9,28.8,00.0,38.6,31.8,25.9,0000.0,0007.83,0004.60,0004.27
2022-07-30 06:34:00,,0830.1,5.01,0.00,29.9,28.9,00.0,38.6,31.8,25.8,0000.0,0007.85,0004.62,0004.28
2022-07-30 06:35:00,,0830.1,5.00,0.00,29.9,28.9,00.0,38.6,31.9,25.6,0000.0,0007.84,0004.63,0004.28
2022-07-30 06:36:00,,0830.1,5.00,0.00,29.9,28.9,00.0,38.7,31.9,25.5,0000.0,0007.82,0004.62,0004.28
2022-07-30 06:37:00,,0830.1,5.00,0.00,29.9,28.9,00.0,38.7,31.9,25.3,0000.0,0007.44,0004.63,0004.29
2022-07-30 06:38:00,,0830.1,5.00,0.00,30.0,29.0,00.0,38.7,31.9,25.2,0000.0,0007.17,0004.65,0004.30
2022-07-30 06:39:00,,0830.0,4.99,0.00,30.0,29.0,00.0,38.7,31.9,25.3,0000.0,0007.23,0004.67,0004.31
2022-07-30 06:40:00,,0830.1,4.99,0.00,30.0,29.0,00.0,38.7,31.9,26.1,0000.0,0007.63,0004.67,0004.32
2022-07-30 06:41:00,,0830.0,5.00,0.00,30.0,28.8,00.0,38.7,31.9,26.3,0000.0,0008.28,0004.67,0004.32
2022-07-30 06:42:00,,0829.9,5.01,0.00,30.0,28.0,00.0,38.7,31.7,26.0,0000.0,0008.40,0004.70,0004.33
2022-07-30 06:43:00,,0829.9,4.99,0.00,29.9,27.6,00.0,38.6,31.6,26.3,0000.0,0008.40,0004.70,0004.33
2022-07-30 06:44:00,,0829.8,5.01,0.00,29.8,27.5,00.0,38.6,31.4,26.7,0000.0,0008.32,0004.69,0004.33
2022-07-30 06:45:00,,0829.9,4.99,0.00,29.7,27.5,00.0,38.6,31.4,26.9,0000.0,0008.21,0004.66,0004.32
2022-07-30 06:46:00,,0829.8,5.01,0.00,29.7,27.7,00.0,38.6,31.4,27.1,0000.0,0008.37,0004.65,0004.32
2022-07-30 06:47:00,,0829.8,5.00,0.00,29.7,27.8,00.0,38.6,31.5,27.3,0000.0,0008.36,0004.65,0004.33
2022-07-30 06:48:00,,0829.8,5.00,0.00,29.7,27.9,00.0,38.5,31.5,27.4,0000.0,0008.36,0004.64,0004.32
2022-07-30 06:49:00,,0829.8,5.00,0.00,29.7,28.0,00.0,38.5,31.5,27.3,0000.0,0008.28,0004.62,0004.32
2022-07-30 06:50:00,,0829.7,5.00,0.00,29.7,28.1,00.0,38.5,31.5,27.5,0000.0,0008.28,0004.62,0004.32
2022-07-30 06:51:00,,0829.8,4.99,0.00,29.7,28.2,00.0,38.5,31.5,27.6,0000.0,0008.03,0004.61,0004.32
2022-07-30 06:52:00,,0829.7,5.01,0.00,29.7,28.3,00.0,38.5,31.6,26.7,0000.0,0007.27,0004.61,0004.32
2022-07-30 06:53:00,,0829.7,5.00,0.00,29.7,28.4,00.0,38.5,31.6,26.6,0000.0,0007.05,0004.60,0004.31
2022-07-30 06:54:00,,0829.8,4.99,0.00,29.7,28.5,00.0,38.5,31.6,26.1,0000.0,0006.98,0004.59,0004.31
2022-07-30 06:55:00,,0829.6,5.00,0.00,29.7,28.5,00.0,38.5,31.7,25.7,0000.0,0007.01,0004.59,0004.31
2022-07-30 06:56:00,,0829.7,5.00,0.00,29.8,28.6,00.0,38.5,31.7,25.9,0000.0,0007.19,0004.61,0004.31
2022-07-30 06:57:00,,0829.7,4.98,0.00,29.8,28.6,00.0,38.6,31.7,26.0,0000.0,0007.03,0004.62,0004.30
2022-07-30 06:58:00,,0829.6,5.01,0.00,29.8,28.7,00.0,38.6,31.7,25.8,0000.0,0007.03,0004.63,0004.30
2022-07-30 06:59:00,,0829.7,5.00,0.00,29.8,28.7,00.0,38.6,31.7,25.7,0000.0,0007.25,0004.64,0004.30
